Regional Weather Roundup
Issued by NWS Green Bay, WI

Home | Current Version | Previous Version | Graphics & Text | Print | Product List | Glossary Off
Versions: 1 2 3 4 5 6 7 8 9 10 11 12 13 14 15 16 17 18 19 20 21 22 23 24 25 26 27 28 29 30 31 32 33 34 35 36 37 38 39 40 41 42 43 44 45 46 47 48 49 50

000
ASUS43 KGRB 172000
RWRGRB

NORTH-CENTRAL AND NORTHEAST WISCONSIN REGIONAL WEATHER ROUNDUP
NATIONAL WEATHER SERVICE GREEN BAY WI
200 PM CST TUE JAN 17 2017

WIZ005-009-010>012-018-019-172100-
NORTH CENTRAL WISCONSIN

CITY           SKY/WX    TMP DP  RH WIND       PRES   REMARKS
IRONWOOD       SUNNY     36  26  67 SW3       29.89F
MANITOWISH WTR NOT AVBL
ARBOR VITAE    NOT AVBL
EAGLE RIVER    NOT AVBL
LAND O LAKES   NOT AVBL
RHINELANDER    CLOUDY    40  33  76 CALM      29.85S
PHILLIPS       SUNNY     40  33  76 NE3       29.86F
ANTIGO         NOT AVBL
TOMAHAWK       NOT AVBL
MERRILL        CLOUDY    37  35  94 N3          N/A
$$

WIZ013-073-172100-
NORTHEAST WISCONSIN

CITY           SKY/WX    TMP DP  RH WIND       PRES   REMARKS
IRON MOUNTAIN  CLOUDY    37  31  78 N6        29.84S
MARINETTE      NOT AVBL
$$

WIZ017-030-035>037-045-172100-
CENTRAL WISCONSIN

CITY           SKY/WX    TMP DP  RH WIND       PRES   REMARKS
MEDFORD        NOT AVBL
WAUSAU         CLOUDY    36  33  89 N3        29.84R
MOSINEE        CLOUDY    34  34 100 N3        29.86R FOG
MARSHFIELD     LGT RAIN  35  32  88 N5        29.85R FOG
WISC RAPIDS    CLOUDY    35  34  96 N3        29.87R
STEVENS POINT  NOT AVBL
WAUPACA        NOT AVBL
SHAWANO        NOT AVBL
CLINTONVILLE   FOG       34  32  93 N5        29.85R VSB 1/2
WAUTOMA        CLOUDY    35  34  96 N6        29.86R
$$

WIZ038-039-048-051-172100-
FOX VALLEY

CITY           SKY/WX    TMP DP  RH WIND       PRES   REMARKS
NWS GREEN BAY  CLOUDY    36  35  96 N6        29.83S FOG
APPLETON         N/A     34  34 100 N6        29.82S FOG
OSHKOSH        LGT RAIN  34  32  92 NW6       29.84R FOG
FOND DU LAC    FOG       34  32  92 NW6       29.83F VSB 3/4
$$

WIZ022-050-052-172100-
EAST CENTRAL WISCONSIN

CITY           SKY/WX    TMP DP  RH WIND       PRES   REMARKS
EPHRAIM        NOT AVBL
WASHINGTON ISL NOT AVBL
STURGEON BAY   CLOUDY    35  34  96 N6        29.83R FOG
MANITOWOC      NOT AVBL
SHEBOYGAN      CLOUDY    34  33  96 W8        29.82S FOG
$$

LMZ563-521-522-541>543-172100-
LAKESHORE

STATION/POSITION TIME  TEMP    WIND        PRES    VSBY  WAVE
                       AIR SEA DIR/SP/G                  HT/PER
                 (UTC) (F)     (DEG/KT/KT) (MB)    (MI)  (FT/S)
SHEBOYGAN LKSHOR 1900   35     280/  7/  8 1010.0F
KEWAUNEE LKSHORE 1930   36     350/  4/  6 1009.0F
NORTHPORT PIER   1940   34      40/ 10/ 14 1010.5S
SISTER BAY LKSHO 1920   35      70/  6/ 11   N/A
MENOMINEE LKSHOR 1924           10/ 16/ 18 1009.6
$$



USA.gov is the U.S. government's official web portal to all federal, state and local government web resources and services.